User: anonymous   Login
Location: Unspecified
(0.0000°N, 0.0000°E)
Time: 23:07:22
(UTC+00:00)
Language:

TECHNOSAT - Orbit

View from above orbital plane
View from above orbital plane
View from above satellite
View from above satellite

Ground track
Ground track

The orbit data is extracted from the following two-line orbital elements,

1 42829U 17042E   23083.83239781  .00005911  00000-0  57089-3 0  9994
2 42829  97.3949 286.3127 0014482 144.0486 216.1712 14.93106231309904
Epoch (UTC): 24 March 2023 19:58:39
Eccentricity: 0.0014482
inclination: 97.3949°
perigee height: 578 km
apogee height: 598 km
right ascension of ascending node: 286.3127°
argument of perigee: 144.0486°
revolutions per day: 14.93106231
mean anomaly at epoch: 216.1712°
orbit number at epoch: 30990

The dashed part of the orbit path shows where the satellite is in the earth's shadow,  

DLR